GW0245 Weather Reports


Display with metric or nautical units.
time (UTC)temp
F
wind
direction
speed
MPH
gust
MPH
rain 1hr
in
rain 24hr
in
rain mn
in
humidity
%
barometer
mb
20260504174555 69 0 8.0 17.0 0.00 0.00 0.00 36 1014.1
20260504173102 69 121 7.0 16.0 0.00 0.00 0.00 36 1014.0
20260504171556 68 154 8.0 17.0 0.00 0.00 0.00 37 1013.8
20260504120108 61 153 1.0 5.0 0.00 0.00 0.00 44 1012.9
20260504100116 63 0 1.0 5.0 0.00 0.00 0.00 41 1013.7
20260504081608 65 0 0.0 11.0 0.00 0.00 0.00 35 1012.9
20260504060107 65 0 0.0 2.0 0.00 0.00 0.00 29 1012.3
20260504050110 69 0 0.0 6.0 0.00 0.00 0.00 27 1012.5
20260504044554 69 0 0.0 5.0 0.00 0.00 0.00 25 1012.3
20260504043102 70 158 1.0 4.0 0.00 0.00 0.00 24 1012.2
20260504041557 71 209 1.0 5.0 0.00 0.00 0.00 22 1012.0
20260504040104 72 226 4.0 10.0 0.00 0.00 0.00 21 1011.7
20260504034610 73 255 5.0 13.0 0.00 0.00 0.00 21 1011.5
20260504033100 72 253 4.0 11.0 0.00 0.00 0.00 21 1011.3
20260504031602 73 237 3.0 10.0 0.00 0.00 0.00 20 1011.1
20260504030055 73 242 5.0 11.0 0.00 0.00 0.00 20 1011.1
20260504024558 73 263 4.0 9.0 0.00 0.00 0.00 20 1010.9
20260504023055 74 175 3.0 5.0 0.00 0.00 0.00 20 1010.7
20260504021557 75 170 2.0 10.0 0.00 0.00 0.00 19 1010.4
20260504020104 76 213 3.0 15.0 0.00 0.00 0.00 19 1010.3
20260504014557 77 234 6.0 15.0 0.00 0.00 0.00 18 1010.5
20260504013053 78 236 5.0 11.0 0.00 0.00 0.00 19 1010.4
20260504011554 79 159 3.0 15.0 0.00 0.00 0.00 19 1010.3
20260504010054 79 166 3.0 10.0 0.00 0.00 0.00 21 1010.4
20260504004554 80 194 5.0 18.0 0.00 0.00 0.00 20 1010.6
20260504003057 81 198 3.0 9.0 0.00 0.00 0.00 20 1010.5
20260504001559 81 163 5.0 14.0 0.00 0.00 0.00 20 1010.6
20260504000058 82 211 8.0 21.0 0.00 0.00 0.00 19 1010.5
20260503234555 82 163 7.0 15.0 0.00 0.00 0.00 19 1010.6
20260503233058 82 161 8.0 16.0 0.00 0.00 0.00 19 1010.6
20260503231552 83 225 6.0 19.0 0.00 0.00 0.00 18 1010.9
20260503230105 83 171 6.0 16.0 0.00 0.00 0.00 17 1010.9
20260503224559 83 217 6.0 15.0 0.00 0.00 0.00 17 1011.2
20260503223054 83 128 7.0 19.0 0.00 0.00 0.00 16 1011.3
20260503221556 83 101 7.0 20.0 0.00 0.00 0.00 17 1011.6
20260503220055 84 186 8.0 17.0 0.00 0.00 0.00 17 1011.8
20260503214554 84 105 6.0 21.0 0.00 0.00 0.00 16 1011.9
20260503213101 84 157 7.0 20.0 0.00 0.00 0.00 17 1012.2
20260503211611 84 130 7.0 18.0 0.00 0.00 0.00 15 1012.4
20260503210053 84 161 9.0 20.0 0.00 0.00 0.00 15 1012.5
20260503204558 84 194 8.0 17.0 0.00 0.00 0.00 18 1012.6
20260503203056 84 157 7.0 19.0 0.00 0.00 0.00 18 1012.8
20260503201556 84 158 8.0 20.0 0.00 0.00 0.00 19 1013.0
20260503200118 83 198 8.0 22.0 0.00 0.00 0.00 20 1013.2
20260503194603 83 163 7.0 18.0 0.00 0.00 0.00 22 1013.2
20260503193102 83 233 7.0 16.0 0.00 0.00 0.00 22 1013.5
20260503191604 82 177 6.0 15.0 0.00 0.00 0.00 24 1014.1
20260503190056 82 98 6.0 15.0 0.00 0.00 0.00 26 1014.4
20260503184613 80 100 8.0 17.0 0.00 0.00 0.00 28 1014.4
20260503183056 80 115 7.0 14.0 0.00 0.00 0.00 28 1014.7
20260503181612 81 82 4.0 15.0 0.00 0.00 0.00 28 1014.8
20260503180115 79 120 5.0 12.0 0.00 0.00 0.00 29 1015.1